• Em Portugal
  • Lista de países
  • Para 7 dias
  • Temperatura da água
  • Mapas de satélite
  • Mapa do tempo
  • Widgets de tempo
  • user-avatar
    Iniciar Sessão

    Previsão horária em Jeziorno

    Hoje, 20 Outubro, Sábado

    Tempo Temperatura Precipitação Vento Pressão Humidade
    00:00 +8°C° 0 mm 1 m/s 764 mmHg 85%
    01:00 +7°C° 0 mm 1 m/s 764 mmHg 85%
    02:00 +7°C° 0 mm 1 m/s 764 mmHg 85%
    03:00 +7°C° 0 mm 1 m/s 764 mmHg 85%
    04:00 +7°C° 0 mm 1 m/s 764 mmHg 85%
    05:00 +7°C° 0 mm 1 m/s 764 mmHg 83%
    06:00 +8°C° 0 mm 1 m/s 764 mmHg 81%
    07:00 +8°C° 0 mm 1 m/s 764 mmHg 80%
    08:00 +9°C° 0 mm 1 m/s 764 mmHg 74%
    09:00 +9°C° 0 mm 2 m/s 764 mmHg 69%
    10:00 +12°C° 0 mm 2 m/s 764 mmHg 64%
    11:00 +12°C° 0 mm 2 m/s 764 mmHg 61%
    12:00 +13°C° 0 mm 2 m/s 764 mmHg 59%
    13:00 +13°C° 0 mm 3 m/s 764 mmHg 56%
    14:00 +12°C° 0.1 mm 3 m/s 764 mmHg 60%
    15:00 +11°C° 0.1 mm 3 m/s 764 mmHg 64%
    16:00 +11°C° 0.1 mm 3 m/s 764 mmHg 68%
    17:00 +10°C° 0.1 mm 3 m/s 764 mmHg 72%
    18:00 +10°C° 0.1 mm 2 m/s 764 mmHg 76%
    19:00 +9°C° 0.1 mm 2 m/s 764 mmHg 80%
    20:00 +8°C° 0 mm 2 m/s 765 mmHg 82%
    21:00 +8°C° 0 mm 2 m/s 765 mmHg 85%
    22:00 +7°C° 0 mm 2 m/s 765 mmHg 87%
    23:00 +7°C° 0 mm 2 m/s 765 mmHg 88%

    Amanhã, 21 Outubro, Domingo

    Tempo Temperatura Precipitação Vento Pressão Humidade
    00:00 +7°C° 0 mm 2 m/s 765 mmHg 90%
    01:00 +6°C° 0 mm 2 m/s 765 mmHg 91%
    02:00 +7°C° 0 mm 1 m/s 765 mmHg 92%
    03:00 +7°C° 0 mm 1 m/s 765 mmHg 92%
    04:00 +7°C° 0 mm 1 m/s 765 mmHg 93%
    05:00 +7°C° 0 mm 1 m/s 766 mmHg 93%
    06:00 +7°C° 0 mm 1 m/s 766 mmHg 93%
    07:00 +7°C° 0 mm 1 m/s 766 mmHg 93%
    08:00 +9°C° 0 mm 1 m/s 766 mmHg 86%
    09:00 +10°C° 0 mm 1 m/s 767 mmHg 79%
    10:00 +12°C° 0 mm 2 m/s 767 mmHg 72%
    11:00 +13°C° 0 mm 2 m/s 767 mmHg 67%
    12:00 +13°C° 0 mm 2 m/s 767 mmHg 63%
    13:00 +14°C° 0 mm 2 m/s 767 mmHg 59%
    14:00 +14°C° 0 mm 1 m/s 767 mmHg 61%
    15:00 +13°C° 0 mm 1 m/s 766 mmHg 64%
    16:00 +12°C° 0 mm 1 m/s 766 mmHg 67%
    17:00 +12°C° 0 mm 1 m/s 766 mmHg 70%
    18:00 +11°C° 0 mm 1 m/s 767 mmHg 74%
    19:00 +9°C° 0 mm 2 m/s 767 mmHg 78%
    20:00 +8°C° 0 mm 2 m/s 766 mmHg 80%
    21:00 +8°C° 0 mm 2 m/s 766 mmHg 82%
    22:00 +8°C° 0 mm 2 m/s 766 mmHg 84%
    23:00 +7°C° 0 mm 3 m/s 766 mmHg 86%

    Depois de amanhã, 22 Outubro, Segunda-feira

    Tempo Temperatura Precipitação Vento Pressão Humidade
    00:00 +7°C° 0 mm 3 m/s 766 mmHg 88%
    01:00 +7°C° 0 mm 3 m/s 766 mmHg 90%
    02:00 +5°C° 0 mm 3 m/s 765 mmHg 90%
    03:00 +5°C° 0 mm 3 m/s 765 mmHg 91%
    04:00 +5°C° 0 mm 4 m/s 765 mmHg 92%
    05:00 +5°C° 0 mm 4 m/s 765 mmHg 92%
    06:00 +5°C° 0 mm 4 m/s 764 mmHg 93%
    07:00 +5°C° 0 mm 4 m/s 764 mmHg 93%
    08:00 +7°C° 0 mm 4 m/s 764 mmHg 85%
    09:00 +8°C° 0 mm 5 m/s 764 mmHg 77%
    10:00 +10°C° 0 mm 5 m/s 763 mmHg 69%
    11:00 +10°C° 0.1 mm 5 m/s 763 mmHg 67%
    12:00 +12°C° 0.1 mm 5 m/s 763 mmHg 66%
    13:00 +12°C° 0.1 mm 5 m/s 762 mmHg 64%
    14:00 +10°C° 0.5 mm 5 m/s 762 mmHg 70%
    15:00 +10°C° 0.5 mm 5 m/s 762 mmHg 77%
    16:00 +9°C° 0.5 mm 5 m/s 762 mmHg 83%
    17:00 +9°C° 0.4 mm 5 m/s 762 mmHg 82%
    18:00 +8°C° 0.4 mm 4 m/s 762 mmHg 81%
    19:00 +8°C° 0.4 mm 4 m/s 762 mmHg 79%
    20:00 +8°C° 0 mm 4 m/s 762 mmHg 78%
    21:00 +7°C° 0 mm 4 m/s 762 mmHg 77%
    22:00 +7°C° 0 mm 4 m/s 762 mmHg 76%
    23:00 +6°C° 0 mm 4 m/s 762 mmHg 76%

    23 Outubro, Terça-feira

    Tempo Temperatura Precipitação Vento Pressão Humidade
    00:00 +6°C° 0 mm 4 m/s 762 mmHg 77%
    01:00 +5°C° 0 mm 4 m/s 762 mmHg 77%
    02:00 +5°C° 0 mm 4 m/s 762 mmHg 79%
    03:00 +4°C° 0 mm 4 m/s 762 mmHg 82%
    04:00 +4°C° 0 mm 4 m/s 761 mmHg 85%
    05:00 +4°C° 0 mm 4 m/s 761 mmHg 85%
    06:00 +4°C° 0 mm 4 m/s 761 mmHg 86%
    07:00 +3°C° 0 mm 5 m/s 760 mmHg 86%
    08:00 +5°C° 0 mm 5 m/s 759 mmHg 81%
    09:00 +5°C° 0 mm 6 m/s 758 mmHg 75%
    10:00 +6°C° 0 mm 7 m/s 758 mmHg 70%
    11:00 +6°C° 0.4 mm 8 m/s 756 mmHg 71%
    12:00 +6°C° 0.4 mm 9 m/s 755 mmHg 73%
    13:00 +6°C° 0.4 mm 10 m/s 753 mmHg 74%
    14:00 +6°C° 1 mm 10 m/s 752 mmHg 77%
    15:00 +6°C° 1 mm 10 m/s 750 mmHg 79%
    16:00 +6°C° 1 mm 11 m/s 749 mmHg 82%
    17:00 +6°C° 1.2 mm 11 m/s 747 mmHg 83%
    18:00 +6°C° 1.2 mm 10 m/s 745 mmHg 84%
    19:00 +7°C° 1.2 mm 10 m/s 743 mmHg 85%
    20:00 +7°C° 2.3 mm 10 m/s 742 mmHg 86%
    21:00 +8°C° 2.3 mm 9 m/s 741 mmHg 87%
    22:00 +8°C° 2.3 mm 9 m/s 740 mmHg 88%
    23:00 +8°C° 1 mm 9 m/s 740 mmHg 85%

    24 Outubro, Quarta-feira

    Tempo Temperatura Precipitação Vento Pressão Humidade
    00:00 +8°C° 1 mm 9 m/s 740 mmHg 82%
    01:00 +8°C° 1 mm 9 m/s 739 mmHg 79%
    02:00 +7°C° 0.4 mm 10 m/s 740 mmHg 77%
    03:00 +6°C° 0.4 mm 11 m/s 741 mmHg 74%
    04:00 +5°C° 0.4 mm 12 m/s 742 mmHg 71%
    05:00 +4°C° 0.2 mm 11 m/s 743 mmHg 68%
    06:00 +3°C° 0.2 mm 11 m/s 744 mmHg 65%
    07:00 +2°C° 0.2 mm 10 m/s 745 mmHg 62%
    08:00 +3°C° 0.2 mm 11 m/s 746 mmHg 60%
    09:00 +4°C° 0.2 mm 12 m/s 747 mmHg 57%
    10:00 +4°C° 0.2 mm 12 m/s 747 mmHg 55%
    11:00 +4°C° 0.1 mm 12 m/s 748 mmHg 54%
    12:00 +5°C° 0.1 mm 12 m/s 748 mmHg 54%
    13:00 +6°C° 0.1 mm 11 m/s 749 mmHg 53%
    14:00 +5°C° 0.2 mm 10 m/s 749 mmHg 55%
    15:00 +5°C° 0.2 mm 10 m/s 750 mmHg 56%
    16:00 +5°C° 0.2 mm 9 m/s 750 mmHg 58%
    17:00 +4°C° 0.1 mm 8 m/s 751 mmHg 60%
    18:00 +4°C° 0.1 mm 7 m/s 751 mmHg 61%
    19:00 +4°C° 0.1 mm 7 m/s 751 mmHg 63%
    20:00 +3°C° 0 mm 6 m/s 751 mmHg 64%
    21:00 +3°C° 0 mm 6 m/s 752 mmHg 65%
    22:00 +3°C° 0 mm 6 m/s 752 mmHg 66%
    23:00 +3°C° 0 mm 5 m/s 752 mmHg 67%

    25 Outubro, Quinta-feira

    Tempo Temperatura Precipitação Vento Pressão Humidade
    00:00 +2°C° 0 mm 5 m/s 752 mmHg 68%
    01:00 +2°C° 0 mm 5 m/s 752 mmHg 69%
    02:00 +2°C° 0 mm 5 m/s 752 mmHg 70%
    03:00 +2°C° 0 mm 5 m/s 752 mmHg 70%
    04:00 +1°C° 0 mm 5 m/s 752 mmHg 71%
    05:00 +3°C° 0 mm 4 m/s 751 mmHg 71%
    06:00 +3°C° 0 mm 4 m/s 751 mmHg 72%
    07:00 +3°C° 0 mm 4 m/s 751 mmHg 72%
    08:00 +3°C° 0.4 mm 4 m/s 751 mmHg 75%
    09:00 +4°C° 0.4 mm 4 m/s 750 mmHg 78%
    10:00 +4°C° 0.4 mm 4 m/s 750 mmHg 80%
    11:00 +5°C° 0.8 mm 4 m/s 750 mmHg 82%
    12:00 +6°C° 0.8 mm 5 m/s 749 mmHg 84%
    13:00 +7°C° 0.8 mm 6 m/s 749 mmHg 85%
    14:00 +8°C° 0.1 mm 6 m/s 748 mmHg 85%
    15:00 +8°C° 0.1 mm 6 m/s 748 mmHg 86%
    16:00 +9°C° 0.1 mm 6 m/s 748 mmHg 86%
    17:00 +9°C° 0.2 mm 7 m/s 747 mmHg 85%
    18:00 +9°C° 0.2 mm 7 m/s 747 mmHg 84%
    19:00 +9°C° 0.2 mm 7 m/s 747 mmHg 83%
    20:00 +9°C° 0.1 mm 7 m/s 747 mmHg 83%
    21:00 +8°C° 0.1 mm 7 m/s 747 mmHg 82%
    22:00 +8°C° 0.1 mm 7 m/s 747 mmHg 82%
    23:00 +9°C° 0.3 mm 7 m/s 746 mmHg 82%
    Mostrar mais